Location: Heisler
(52.6701°N, 112.2239°W)
Time: 10:40:19
(UTC+00:00)

Envisat - Pass Details

Date: 04 December 2021
Orbit: 764 x 766 km, 98.2° (Epoch: 28 January)

Event Time Altitude Azimuth Distance (km) Brightness Sun altitude
Rises 13:49:48 0° 9° (N) 3,249 6.1 -13.1°
Reaches altitude 10° 13:52:19 10° 359° (N) 2,318 5.3 -12.8°
Maximum altitude 13:56:47 32° 299° (WNW) 1,311 3.7 -12.1°
Drops below altitude 10° 14:01:13 10° 238° (WSW) 2,303 5.1 -11.5°
Sets 14:03:43 0° 228° (SW) 3,225 6.0 -11.2°
